Weather in Irbit

Russia / Sverdlovsk Oblast     57°41′01″N   63°03′27″E
temp.,
°C
wind,
m/s
gust,
m/s
humid.,
%
clouds,
%
prec.,
mm/h
press.,
hPa
HPBL,
m
18 april, sun
sun1823:00+5w310665 0.0 1018318
02:00+4w413695 0.0 1015406
05:00+4w5137596 0.0 1014641
08:00+2nnw61365100 0.2 10151195
11:00+2nne81153100 0.3 10211649
14:00+3nne793394 0.0 10242148
17:00+2nne682790 0.0 10282427
20:00−1ne48361 0.0 1030523
19 april, mon
mon1923:00−3ne37450 0.0 1032556
02:00−4nne24510 0.0 1033295
05:00−5n24575 0.0 1035235
08:00−3nne35425 0.0 10361021
11:000n4634100 0.0 10361984
14:00+2n4629100 0.0 10342282
17:00+3n4528100 0.0 10342234
20:000ene224423 0.0 103433
20 april, tue
tue2023:00−3se22475 0.0 103420
02:00−3sw24475 0.0 103469
05:00−3wsw265783 0.0 1033136
08:00+1w4744100 0.0 1032347
11:00+5wnw573224 0.0 10301156
14:00+8wnw57325 0.0 10281556
17:00+10nw68325 0.0 10261819
20:00+6nw49475 0.0 1027252
21 april, wed
wed2123:00+3nw310645 0.0 1028204
02:00+2nw37785 0.0 1029161
05:000nnw24885 0.0 103063
08:00+4nne24745 0.0 1032295
11:00+8nne245228 0.0 10321214
14:00+11nne234273 0.0 10321671
17:00+11ne224168 0.0 10331664
20:00+8e23565 0.0 103447
22 april, thu
thu2223:00+5se25655 0.0 103598
02:00+4sse25635 0.0 103694
05:00+3sse24653 0.0 103664
08:00+7s36531 0.0 1037275
11:00+12s46410 0.0 10361150
14:00+15s563431 0.0 10351821
17:00+15s563375 0.0 10341964
20:00+12sse38475 0.0 1034177